Location: Unspecified
(0.0000°N, 0.0000°E)
Time: 21:16:53
(UTC+00:00)

SJ-6F - Pass Details

Date: 11 August 2021
Orbit: 570 x 594 km, 97.8° (Epoch: 25 September)

Event Time Altitude Azimuth Distance (km) Brightness Sun altitude
Rises 04:49:28 0° 347° (NNW) 2,760 7.9 -18.3°
Reaches altitude 10° 04:52:01 10° 330° (NNW) 1,864 6.9 -17.6°
Enters shadow 04:53:33 17° 311° (NW) 1,473 6.2 -17.3°
